星链-35888(STARLINK-35888)

导读

STARLINK-35888是美国SpaceX星链互联网卫星项目中的一颗卫星,于2025年12月17日由美国发射升空。它属于星链星座部署计划的组成部分,旨在为全球尤其是偏远地区提供高速低延迟的宽带互联网服务,继承了星链星座标准化设计,助力 SpaceX 完成近地轨道卫星星座组网,拓展全球卫星互联网覆盖范围。

Basic Information
目录编号:
67190
目录名称:
STARLINK-35888
国际标识:
2025-303AD
轨道中心:
EARTH
卫星名称:
星链-35888
卫星全名:
星链-35888(STARLINK-35888)
卫星状态:
在轨 (已飞行261 天)
发射日期:
2025-12-17 UTC
国别 :
美国 (US)
星等 :
--
Orbit Information
数据来源 国际轨道数据
星历时间: 2026-09-04T01:51:06+0800
10小时前
查看轨道信息
半长轴: 6861.163km
偏心率: 0.0001223
轨道倾角: 43.000°
近地点辐角 273.132°
升交点赤经 25.376°
平近点角 86.939°
近地点: 482.186km
远地点: 483.866km
周期: 94.266分钟
每日圈数: 15.275879
Detailed Information
固有亮度:
5
最大亮度:
2.5
卫星平台:
Starlink V1.0
覆盖范围:
全球
运营商:
太空探索技术公司
运营商所在国:
美国
制造商(研发单位):
太空探索技术公司
制造商所在国:
美国
使用方式:
暂无
Satellite Introduction
Starlink 计划是 SpaceX 推出的全球卫星互联网项目,通过发射低轨道卫星,为全球尤其是偏远地区提供高速、低延迟的互联网服务。自 2019 年起,Starlink 已部署数千颗卫星,旨在缩小全球数字鸿沟,推动互联网普及。该项目还为军事、航空等行业提供通信支持,带来广泛经济效益。
2D Orbit Map
3D Orbit Map
Orbit Altitude Analysis Chart
Orbit Inclination Analysis Chart
Orbit Comprehensive Analysis Chart
View Comprehensive Chart
Conjunction Data List
Event ID Objects TCA Miss Dist (km) Collision Risk Probability Collision Risk Index (CRI) Action
CDM_260904-055005-652306-719022
2026-09-04T
05:50:10+0000
0.527 km
远距离
1.233424E-4 高风险 0.77
CDM_260904-191005-652306-719022
2026-09-04T
19:10:28+0000
1.162 km
极远距离
1.031955E-5 中风险 0.55
CDM_260904-204405-652306-719021
2026-09-04T
20:44:38+0000
1.205 km
极远距离
9.084808E-6 低风险 0.54
CDM_260904-072405-652306-719021
2026-09-04T
07:24:20+0000
1.331 km
极远距离
6.476242E-6 低风险 0.51
CDM_260829-170806-389006-719021
2026-08-29T
17:08:49+0000
1.429 km
极远距离
5.85545E-6 低风险 0.5
CDM_260905-110705-559106-719021
2026-09-05T
11:07:50+0000
1.337 km
极远距离
4.553816E-6 低风险 0.48
CDM_260829-184206-389006-719021
2026-08-29T
18:42:58+0000
1.742 km
极远距离
3.161835E-6 低风险 0.45
CDM_260904-041605-652306-719022
2026-09-04T
04:16:01+0000
2.320 km
极远距离
1.387161E-6 低风险 0.38
CDM_260905-093305-559106-719021
2026-09-05T
09:33:41+0000
2.102 km
极远距离
1.270168E-6 低风险 0.37
CDM_260827-182906-376806-719021
2026-08-27T
18:29:42+0000
2.688 km
极远距离
1.059914E-6 低风险 0.36